Regional Weather Roundup
Issued by NWS

Current Version | Previous Version | Text Only | Print | Product List | Glossary On
Versions: 1 2 3 4 5 6 7 8 9 10 11 12 13 14 15 16 17 18 19 20 21 22 23 24 25 26 27 28 29 30 31 32 33 34 35 36 37 38 39 40 41 42 43 44 45 46 47 48 49 50
000
ASUS46 KSEW 190410
RWRWA

WASHINGTON REGIONAL WEATHER ROUNDUP
NATIONAL WEATHER SERVICE SEATTLE WA
900 PM PDT SAT APR 18 2015

NOTE:"FAIR" INDICATES FEW OR NO CLOUDS BELOW 12,000 FEET WITH NO
SIGNIFICANT WEATHER AND/OR OBSTRUCTIONS TO VISIBILITY.

WAZ505-507>509-190500-
SEATTLE, TACOMA, EVERETT, AND VICINITY

CITY           SKY/WX    TMP DP  RH WIND       PRES   REMARKS
EVERETT        PTCLDY    53  43  68 N3        30.25F
BOEING FIELD   MOCLDY    61  41  47 CALM      30.24R
RENTON         CLEAR     56  45  66 CALM      30.23S
SEATAC AIRPORT MOCLDY    57  42  57 N7        30.24S
JBLM-MCCHORD   CLEAR     54  39  56 NE2       30.23S
PUYALLUP       FAIR      50  41  71 CALM      30.24S
BREMERTON      PTCLDY    54  39  58 NE10      30.27R
JBLM-FT LEWIS  CLEAR     57  40  54 N3        30.23S
TACOMA NARROWS PTCLDY    54  36  50 N7        30.24S
$$

WAZ001-503-506-510-514-515-190500-
NORTH INTERIOR

CITY           SKY/WX    TMP DP  RH WIND       PRES   REMARKS
BELLINGHAM     PTCLDY    50  43  77 CALM      30.26S
FRIDAY HARBOR  CLEAR     49  40  71 CALM      30.27S
EASTSOUND      CLEAR     48  45  87 CALM      30.25S
PORT ANGELES   CLEAR     48  42  80 SW5       30.27S
NAS WHIDBEY    PTCLDY    51  44  77 CALM      30.27S
ARLINGTON      PTCLDY    52  37  58 NW7       30.26S
BURLINGTON     CLEAR     50  43  76 NW7       30.26S
$$

WAZ020-022-039-040-504-511-512-190500-
SOUTHWEST INTERIOR

CITY           SKY/WX    TMP DP  RH WIND       PRES   REMARKS
SHELTON        PTCLDY    58  42  55 CALM      30.22R
OLYMPIA        PTCLDY    57  37  47 N5        30.24R
CHEHALIS       FAIR      54  41  62 CALM      30.22R
KELSO          CLEAR     59  34  38 CALM      30.22S
VANCOUVER      CLEAR     65  35  33 NW8       30.14S
SCAPPOOSE, OR  CLEAR     64  31  28 NW9       30.16R
PORTLAND, OR   PTCLDY    64  38  38 NW10      30.15R
$$

WAZ021-516-517-190500-
WASHINGTON COAST

CITY           SKY/WX    TMP DP  RH WIND       PRES   REMARKS
FORKS          CLEAR     49  46  90 N5        30.25F
HOQUIAM        CLEAR     53  46  77 W3        30.23S
ASTORIA, OR    CLEAR     52  47  83 NW14      30.22R
$$

WAZ019-023-024-040-518-519-190500-
CASCADE MOUNTAINS AND COLUMBIA GORGE

CITY           SKY/WX    TMP DP  RH WIND       PRES   REMARKS
TROUTDALE, OR  CLEAR     64  40  41 SW7       30.13R
THE DALLES, OR CLEAR     62  34  35 CALM      30.14R
$$

WAZ026-027-041>044-520-521-190500-
EAST SLOPES

CITY           SKY/WX    TMP DP  RH WIND       PRES   REMARKS
OMAK           CLEAR     55  28  35 W10       30.18R
WENATCHEE      CLEAR     58  32  37 E7        30.15R
ELLENSBURG     CLEAR     61  36  39 N13       30.17R
YAKIMA         CLEAR     56  30  37 W3        30.16R
$$

WAZ028-034-035-190500-
COLUMBIA BASIN

CITY           SKY/WX    TMP DP  RH WIND       PRES   REMARKS
EPHRATA        CLEAR     60  29  30 NW5       30.15S
MOSES LAKE     CLEAR     62  28  27 SW3       30.17R
PASCO          PTCLDY    57  36  45 SW3       30.16R
HERMISTON, OR  CLEAR     51  30  44 SE5       30.15S
$$

WAZ036>038-190500-
NORTHEAST WASHINGTON

CITY           SKY/WX    TMP DP  RH WIND       PRES   REMARKS
SPOKANE GEIGER PTCLDY    59  18  20 N5        30.16R
SPOKANE FELTS  CLEAR     53  25  33 N3        30.16R
FAIRCHILD AFB  CLEAR     54  24  32 W3        30.16S
COEURDALENE,ID CLEAR     54  23  30 CALM      30.16S
DEER PARK      CLEAR     48  26  42 NW5       30.16R HAZE
$$

WAZ029>033-190500-
SOUTHEAST WASHINGTON

CITY           SKY/WX    TMP DP  RH WIND       PRES   REMARKS
PULLMAN        CLEAR     53  26  35 W9        30.19R
LEWISTON, ID   LGT RAIN  58  22  24 W6        30.16R
WALLA WALLA    PTCLDY    55  38  52 E7        30.18R
PENDLETON, OR  CLEAR     55  29  36 E6        30.17R
$$



USA.gov is the U.S. government's official web portal to all federal, state and local government web resources and services.